Погода в Сьюдад-Истепек

Мексика     16°33′27″N   95°05′58″W
темп.,
°C
ветер,
м/с
пор.,
м/с
влажн.,
%
обл.,
%
осадки,
мм/ч
давл.,
гПа
погр.,
м
24 июля, сб
сб2401:00+26с8157034 0.0 1016927
04:00+25с7147599 0.0 1014804
07:00+24с6147595 0.0 1015639
10:00+29с8125341 0.0 10161203
13:00+33с8104586 0.0 10151510
16:00+33с81047100 0.0 10121388
19:00+29с8126368 0.0 10121036
22:00+27с6137199 0.0 1014829
25 июля, вс
вс2501:00+26с6127636 0.0 1014660
04:00+25с51181100 0.0 1012510
07:00+24с51282100 0.0 1013501
10:00+29с6106049 0.0 1014967
13:00+32с7948100 0.0 10121490
16:00+33с810485 0.0 10101462
19:00+29с7126364 0.0 1010958
22:00+27с61271100 0.0 1012777
26 июля, пн
пн2601:00+26ссз5127755 0.0 1013588
04:00+25с4108294 0.0 1011464
07:00+24с4108399 0.0 1011455
10:00+29с696149 0.0 1013871
13:00+33с784676 0.0 10111465
16:00+34с784650 0.0 10091455
19:00+30с711651 0.0 1010930
22:00+27с612754 0.0 1012651
27 июля, вт
вт2701:00+25с410790 0.0 1013486
04:00+24с38852 0.0 1011347
07:00+24с39885 0.0 1013339
10:00+30с585912 0.0 1014999
13:00+33с67465 0.0 10121553
16:00+34ссв674522 0.0 10101565
19:00+31ссв596117 0.1 1010986
22:00+27с5117388 0.1 1012613
28 июля, ср
ср2801:00+25с398136 0.2 1013410
04:00+24с398472 0.1 1011399
07:00+24с411835 0.1 1013523
10:00+30с69572 0.0 10131045
13:00+34с68455 0.0 10121618
16:00+34с784521 0.0 10091756
19:00+29ссв610664 0.1 1010920
22:00+27с4117411 0.0 1012581